Home > Weather > Medan > Past weeks

Flag for Indonesia Weather for the Past 2 Weeks in Medan, North Sumatra, Indonesia

Now
84 °F

Passing clouds.


Feels Like: 91 °F
Forecast: 76 / 87 °F
Wind: 5 mph from West

Location: Medan / Polonia

Current Time: Feb 9, 2016 at 11:24:00 AM

Latest Report: Feb 9, 2016 at 10:00 AM


Visibility: N/A

Pressure: 29.89 "Hg

Humidity: 70%

Dew point: 73 °F

Location of MedanLocation

Historic Weather in Medan — Graph

°F

Medan Temperature Yesterday

Maximum temperature yesterday: 82 °F (at 2:30 AM)
Minimum temperature yesterday: 75 °F (at 6:00 AM)
Average temperature yesterday: 78 °F

High & Low Weather Summary for the Past Weeks

 TemperatureHumidityPressure
High91 °F (Jan 25, 1:00 PM)100% (Jan 26, 8:00 AM)29.92 "Hg (Jan 26, 8:00 AM)
Low73 °F (Feb 2, 5:30 AM)55% (Jan 25, 4:00 PM)29.71 "Hg (Feb 5, 3:30 PM)
Average81 °F86%29.83 "Hg
* Reported Jan 25 10:00 AM — Feb 9 10:00 AM, Medan, Weather by CustomWeather, © 2016

Note: Actual official high and low records may vary slightly from our data, if they occured in-between our weather recording intervals... More about our weather records

Advertising

Medan Weather History for the Previous 24 Hours

 ConditionsComfort  
Time TempWeatherWind HumidityBarometerVisibility
10:00 AM
Tue, Feb 9
84 °FPassing clouds.5 mph70%29.89 "HgN/A
9:30 AM84 °FPassing clouds.5 mph70%29.89 "HgN/A
9:00 AM82 °FScattered clouds.5 mph74%29.89 "HgN/A
8:30 AM81 °FScattered clouds.3 mph79%29.89 "Hg4 mi
8:00 AM77 °FScattered clouds.2 mph89%29.86 "Hg3 mi
7:30 AM75 °FScattered clouds.3 mph94%29.86 "Hg1 mi
6:30 AM73 °FPassing clouds.3 mph94%29.83 "Hg2 mi
6:00 AM75 °FPassing clouds.5 mph94%29.83 "Hg2 mi
5:00 AM75 °FPassing clouds.3 mph94%29.80 "Hg4 mi
4:00 AM75 °FPassing clouds.5 mph94%29.80 "Hg3 mi
3:30 AM75 °FPassing clouds.3 mph94%29.80 "Hg2 mi
3:00 AM75 °FPassing clouds.3 mph94%29.80 "Hg3 mi
2:30 AM75 °FPassing clouds.5 mph94%29.83 "Hg4 mi
2:00 AM77 °FPassing clouds.3 mph94%29.83 "Hg4 mi
1:30 AM77 °FPassing clouds.5 mph94%29.86 "Hg4 mi
1:00 AM75 °FPassing clouds.5 mph94%29.86 "Hg4 mi
12:00 AM77 °FPassing clouds.6 mph94%29.89 "Hg3 mi
11:30 PM
Mon, Feb 8
77 °FPassing clouds.3 mph94%29.89 "Hg3 mi
11:00 PM77 °FPassing clouds.3 mph94%29.89 "Hg3 mi
10:30 PM77 °FPassing clouds.3 mph94%29.89 "Hg3 mi
10:00 PM77 °FPassing clouds.3 mph94%29.89 "Hg4 mi
9:30 PM77 °FPassing clouds.5 mph94%29.89 "Hg4 mi
9:00 PM77 °FPassing clouds.3 mph94%29.86 "Hg4 mi
8:30 PM77 °FPassing clouds.3 mph94%29.86 "Hg4 mi
8:00 PM77 °FPassing clouds.7 mph94%29.83 "Hg4 mi
7:30 PM77 °FPassing clouds.5 mph94%29.83 "Hg4 mi
7:00 PM79 °FPassing clouds.7 mph94%29.83 "Hg6 mi
6:30 PM79 °FPartly sunny.5 mph94%29.83 "Hg5 mi
6:00 PM79 °FBroken clouds.6 mph94%29.80 "Hg5 mi
5:30 PM81 °FBroken clouds.6 mph89%29.80 "Hg4 mi
5:00 PM79 °FBroken clouds.6 mph94%29.80 "Hg3 mi
4:30 PM81 °FPartly sunny.5 mph84%29.80 "HgN/A
4:00 PM81 °FPartly sunny.6 mph84%29.80 "HgN/A
3:30 PM81 °FPartly sunny.6 mph84%29.80 "HgN/A
3:00 PM81 °FPartly sunny.6 mph89%29.80 "Hg6 mi
2:30 PM81 °FPartly sunny.6 mph89%29.83 "HgN/A
2:00 PM81 °FPartly sunny.5 mph89%29.83 "HgN/A
1:30 PM79 °FPartly sunny.3 mph94%29.83 "HgN/A
1:00 PM77 °FLight rain. More clouds than sun.5 mph100%29.86 "Hg2 mi
12:30 PM77 °FMore clouds than sun.7 mph100%29.89 "Hg3 mi
12:00 PM79 °FPartly sunny.6 mph94%29.89 "Hg4 mi
11:00 AM77 °FRain. Overcast.3 mph100%29.89 "Hg1 mi
Weather by CustomWeather, © 2016

See weather overviewHow to use our weather pages